Time,TemperatureF,DewpointF,PressureIn,WindDirection,WindDirectionDegrees,WindSpeedMPH,WindSpeedGustMPH,Humidity,HourlyPrecipIn,Conditions,Clouds,dailyrainin,SolarRadiationWatts/m^2,SoftwareType,DateUTC
2013-03-09 00:00:00,39.4,27.1,30.33,NW,310,3.0,4.0,61,0.00,,,0.00,0.0,meteohub,2013-03-09 05:00:00,
2013-03-09 00:01:00,39.4,27.1,30.33,NW,310,2.0,4.0,61,0.00,,,0.00,0.0,meteohub,2013-03-09 05:01:00,
2013-03-09 00:02:00,39.4,27.1,30.33,NW,310,2.0,4.0,61,0.00,,,0.00,0.0,meteohub,2013-03-09 05:02:00,
2013-03-09 00:07:00,39.0,26.8,30.33,NW,319,3.0,4.0,61,0.00,,,0.00,0.0,meteohub,2013-03-09 05:07:00,
2013-03-09 00:12:00,38.8,27.0,30.33,NW,308,5.0,5.0,62,0.00,,,0.00,0.0,meteohub,2013-03-09 05:12:00,
2013-03-09 00:17:00,38.8,27.0,30.33,NW,315,3.0,5.0,62,0.00,,,0.00,0.0,meteohub,2013-03-09 05:17:00,
2013-03-09 00:22:00,39.0,27.1,30.33,NW,315,3.0,5.0,62,0.00,,,0.00,0.0,meteohub,2013-03-09 05:22:00,
2013-03-09 00:27:00,38.8,27.3,30.33,NW,316,2.0,5.0,63,0.00,,,0.00,0.0,meteohub,2013-03-09 05:27:00,
2013-03-09 00:32:00,38.7,26.8,30.33,NW,319,3.0,5.0,62,0.00,,,0.00,0.0,meteohub,2013-03-09 05:32:00,
2013-03-09 00:38:00,38.8,27.3,30.33,NW,318,3.0,6.0,63,0.00,,,0.00,0.0,meteohub,2013-03-09 05:38:00,
2013-03-09 00:43:00,38.8,27.3,30.33,NW,307,4.0,6.0,63,0.00,,,0.00,0.0,meteohub,2013-03-09 05:43:00,
2013-03-09 00:48:00,38.8,27.3,30.33,NW,313,3.0,7.0,63,0.00,,,0.00,0.0,meteohub,2013-03-09 05:48:00,
2013-03-09 00:53:00,38.8,27.7,30.33,WNW,293,5.0,7.0,64,0.00,,,0.00,0.0,meteohub,2013-03-09 05:53:00,
2013-03-09 00:58:00,38.8,27.3,30.33,NW,320,3.0,8.0,63,0.00,,,0.00,0.0,meteohub,2013-03-09 05:58:00,
2013-03-09 01:03:00,38.8,27.3,30.33,NW,305,5.0,8.0,63,0.00,,,0.00,0.0,meteohub,2013-03-09 06:03:00,
2013-03-09 01:08:00,38.8,27.7,30.33,NW,315,4.0,8.0,64,0.00,,,0.00,0.0,meteohub,2013-03-09 06:08:00,
2013-03-09 01:13:00,38.7,27.5,30.33,NNW,328,7.0,8.0,64,0.00,,,0.00,0.0,meteohub,2013-03-09 06:13:00,
2013-03-09 01:18:00,38.5,27.3,30.33,NW,313,5.0,8.0,64,0.00,,,0.00,0.0,meteohub,2013-03-09 06:18:00,
2013-03-09 01:23:00,38.5,27.3,30.34,WNW,303,3.0,8.0,64,0.00,,,0.00,0.0,meteohub,2013-03-09 06:23:00,
2013-03-09 01:28:00,38.7,27.5,30.34,NW,311,4.0,8.0,64,0.00,,,0.00,0.0,meteohub,2013-03-09 06:28:00,
2013-03-09 01:33:00,38.5,27.3,30.34,NW,308,3.0,6.0,64,0.00,,,0.00,0.0,meteohub,2013-03-09 06:33:00,
2013-03-09 01:39:00,38.5,27.3,30.34,NW,304,3.0,7.0,64,0.00,,,0.00,0.0,meteohub,2013-03-09 06:39:00,
2013-03-09 01:44:00,38.5,27.3,30.34,NW,317,3.0,7.0,64,0.00,,,0.00,0.0,meteohub,2013-03-09 06:44:00,
2013-03-09 01:49:00,38.5,27.3,30.34,NW,305,4.0,7.0,64,0.00,,,0.00,0.0,meteohub,2013-03-09 06:49:00,
2013-03-09 01:54:00,38.3,27.1,30.34,NW,315,4.0,6.0,64,0.00,,,0.00,0.0,meteohub,2013-03-09 06:54:00,
2013-03-09 01:59:00,38.1,27.3,30.33,WNW,295,4.0,6.0,65,0.00,,,0.00,0.0,meteohub,2013-03-09 06:59:00,
2013-03-09 02:04:00,37.9,27.1,30.33,NW,309,2.0,6.0,65,0.00,,,0.00,0.0,meteohub,2013-03-09 07:04:00,
2013-03-09 02:09:00,37.9,27.1,30.33,NW,305,0.0,6.0,65,0.00,,,0.00,0.0,meteohub,2013-03-09 07:09:00,
2013-03-09 02:14:00,37.9,27.1,30.32,NW,305,0.0,6.0,65,0.00,,,0.00,0.0,meteohub,2013-03-09 07:14:00,
2013-03-09 02:19:00,37.9,26.8,30.32,WNW,295,0.0,6.0,64,0.00,,,0.00,0.0,meteohub,2013-03-09 07:19:00,
2013-03-09 02:25:00,37.9,26.8,30.32,WNW,296,1.0,5.0,64,0.00,,,0.00,0.0,meteohub,2013-03-09 07:25:00,
2013-03-09 02:30:00,37.9,27.1,30.32,WNW,296,0.0,5.0,65,0.00,,,0.00,0.0,meteohub,2013-03-09 07:30:00,
2013-03-09 02:35:00,37.8,27.1,30.31,WNW,296,0.0,5.0,65,0.00,,,0.00,0.0,meteohub,2013-03-09 07:35:00,
2013-03-09 02:40:00,37.6,27.0,30.31,WNW,296,1.0,3.0,65,0.00,,,0.00,0.0,meteohub,2013-03-09 07:40:00,
2013-03-09 02:45:00,37.4,26.8,30.31,NW,320,2.0,2.0,65,0.00,,,0.00,0.0,meteohub,2013-03-09 07:45:00,
2013-03-09 02:50:00,37.2,27.0,30.31,NW,321,2.0,4.0,66,0.00,,,0.00,0.0,meteohub,2013-03-09 07:50:00,
2013-03-09 02:55:00,37.0,26.8,30.30,NNW,327,3.0,4.0,66,0.00,,,0.00,0.0,meteohub,2013-03-09 07:55:00,
2013-03-09 03:00:00,37.0,26.8,30.30,NW,326,1.0,4.0,66,0.00,,,0.00,0.0,meteohub,2013-03-09 08:00:00,
2013-03-09 03:05:00,36.9,26.6,30.30,NW,326,0.0,4.0,66,0.00,,,0.00,0.0,meteohub,2013-03-09 08:05:00,
2013-03-09 03:10:00,36.9,27.0,30.30,NW,326,0.0,4.0,67,0.00,,,0.00,0.0,meteohub,2013-03-09 08:10:00,
2013-03-09 03:16:00,36.9,27.0,30.30,NW,326,2.0,2.0,67,0.00,,,0.00,0.0,meteohub,2013-03-09 08:16:00,
2013-03-09 03:21:00,36.7,26.8,30.30,NW,326,1.0,2.0,67,0.00,,,0.00,0.0,meteohub,2013-03-09 08:21:00,
2013-03-09 03:26:00,36.5,27.0,30.30,NW,326,2.0,3.0,68,0.00,,,0.00,0.0,meteohub,2013-03-09 08:26:00,
2013-03-09 03:31:00,36.3,26.8,30.30,NW,324,2.0,3.0,68,0.00,,,0.00,0.0,meteohub,2013-03-09 08:31:00,
2013-03-09 03:36:00,36.3,26.8,30.30,NW,326,2.0,3.0,68,0.00,,,0.00,0.0,meteohub,2013-03-09 08:36:00,
2013-03-09 03:41:00,36.5,27.0,30.30,NW,323,2.0,4.0,68,0.00,,,0.00,0.0,meteohub,2013-03-09 08:41:00,
2013-03-09 03:46:00,36.7,27.1,30.31,NW,311,2.0,5.0,68,0.00,,,0.00,0.0,meteohub,2013-03-09 08:46:00,
2013-03-09 03:51:00,36.7,27.1,30.31,NW,319,3.0,5.0,68,0.00,,,0.00,0.0,meteohub,2013-03-09 08:51:00,
2013-03-09 03:56:00,36.9,27.3,30.31,NW,309,3.0,5.0,68,0.00,,,0.00,0.0,meteohub,2013-03-09 08:56:00,
2013-03-09 04:01:00,36.9,27.0,30.31,WNW,303,3.0,5.0,67,0.00,,,0.00,0.0,meteohub,2013-03-09 09:01:00,
2013-03-09 04:07:00,36.7,27.1,30.31,NW,319,2.0,6.0,68,0.00,,,0.00,0.0,meteohub,2013-03-09 09:07:00,
2013-03-09 04:12:00,36.5,27.0,30.31,NW,319,3.0,6.0,68,0.00,,,0.00,0.0,meteohub,2013-03-09 09:12:00,
2013-03-09 04:17:00,36.3,26.8,30.31,NW,313,2.0,5.0,68,0.00,,,0.00,0.0,meteohub,2013-03-09 09:17:00,
2013-03-09 04:22:00,36.3,26.8,30.32,NW,307,1.0,5.0,68,0.00,,,0.00,0.0,meteohub,2013-03-09 09:22:00,
2013-03-09 04:27:00,36.5,27.0,30.32,NW,305,3.0,5.0,68,0.00,,,0.00,0.0,meteohub,2013-03-09 09:27:00,
2013-03-09 04:32:00,36.7,26.8,30.32,NW,304,3.0,5.0,67,0.00,,,0.00,0.0,meteohub,2013-03-09 09:32:00,
2013-03-09 04:37:00,36.7,26.8,30.32,NW,305,2.0,4.0,67,0.00,,,0.00,0.0,meteohub,2013-03-09 09:37:00,
2013-03-09 04:42:00,36.7,26.8,30.32,NW,311,2.0,4.0,67,0.00,,,0.00,0.0,meteohub,2013-03-09 09:42:00,
2013-03-09 04:47:00,36.5,26.6,30.32,NW,310,1.0,4.0,67,0.00,,,0.00,0.0,meteohub,2013-03-09 09:47:00,
2013-03-09 04:52:00,36.1,26.6,30.32,NW,310,3.0,4.0,68,0.00,,,0.00,0.0,meteohub,2013-03-09 09:52:00,
2013-03-09 04:57:00,35.8,26.6,30.32,NW,310,2.0,3.0,69,0.00,,,0.00,0.0,meteohub,2013-03-09 09:57:00,
2013-03-09 05:02:00,35.6,26.4,30.32,NW,310,1.0,3.0,69,0.00,,,0.00,0.0,meteohub,2013-03-09 10:02:00,
2013-03-09 05:07:00,35.6,26.4,30.32,NW,311,2.0,3.0,69,0.00,,,0.00,0.0,meteohub,2013-03-09 10:07:00,
2013-03-09 05:12:00,35.8,26.6,30.32,NW,311,1.0,3.0,69,0.00,,,0.00,0.0,meteohub,2013-03-09 10:12:00,
2013-03-09 05:17:00,35.8,26.6,30.32,NW,311,2.0,3.0,69,0.00,,,0.00,0.0,meteohub,2013-03-09 10:17:00,
2013-03-09 05:22:00,36.0,26.8,30.32,NW,311,1.0,3.0,69,0.00,,,0.00,0.0,meteohub,2013-03-09 10:22:00,
2013-03-09 05:27:00,36.0,26.8,30.32,NW,312,2.0,3.0,69,0.00,,,0.00,0.0,meteohub,2013-03-09 10:27:00,
2013-03-09 05:32:00,36.0,26.8,30.32,NW,312,2.0,3.0,69,0.00,,,0.00,0.0,meteohub,2013-03-09 10:32:00,
2013-03-09 05:37:00,36.0,26.8,30.32,NW,312,2.0,3.0,69,0.00,,,0.00,0.0,meteohub,2013-03-09 10:37:00,
2013-03-09 05:42:00,36.0,26.8,30.32,NW,312,1.0,3.0,69,0.00,,,0.00,0.0,meteohub,2013-03-09 10:42:00,
2013-03-09 05:47:00,36.0,26.8,30.32,NW,311,2.0,3.0,69,0.00,,,0.00,0.0,meteohub,2013-03-09 10:47:00,
2013-03-09 05:52:00,36.0,26.8,30.32,NW,311,2.0,4.0,69,0.00,,,0.00,0.0,meteohub,2013-03-09 10:52:00,
2013-03-09 05:57:00,36.0,26.4,30.32,NW,311,1.0,4.0,68,0.00,,,0.00,0.0,meteohub,2013-03-09 10:57:00,
2013-03-09 06:02:00,35.8,26.6,30.32,NW,312,0.0,4.0,69,0.00,,,0.00,0.0,meteohub,2013-03-09 11:02:00,
2013-03-09 06:07:00,35.4,26.2,30.32,NW,311,0.0,3.0,69,0.00,,,0.00,0.0,meteohub,2013-03-09 11:07:00,
2013-03-09 06:12:00,35.2,26.4,30.32,NW,312,1.0,1.0,70,0.00,,,0.00,0.0,meteohub,2013-03-09 11:12:00,
2013-03-09 06:17:00,34.9,26.1,30.32,NW,312,0.0,2.0,70,0.00,,,0.00,0.0,meteohub,2013-03-09 11:17:00,
2013-03-09 06:22:00,34.7,26.2,30.32,NW,312,0.0,2.0,71,0.00,,,0.00,0.0,meteohub,2013-03-09 11:22:00,
2013-03-09 06:27:00,34.5,26.1,30.33,NW,312,0.0,2.0,71,0.00,,,0.00,0.0,meteohub,2013-03-09 11:27:00,
2013-03-09 06:32:00,34.2,25.7,30.33,NW,312,0.0,0.0,71,0.00,,,0.00,0.0,meteohub,2013-03-09 11:32:00,
2013-03-09 06:37:00,34.2,25.7,30.33,NW,312,0.0,0.0,71,0.00,,,0.00,0.0,meteohub,2013-03-09 11:37:00,
2013-03-09 06:42:00,33.6,25.5,30.33,NW,312,0.0,0.0,72,0.00,,,0.00,7.0,meteohub,2013-03-09 11:42:00,
2013-03-09 06:47:00,33.4,25.7,30.33,NW,312,0.0,0.0,73,0.00,,,0.00,9.0,meteohub,2013-03-09 11:47:00,
2013-03-09 06:52:00,33.1,25.7,30.33,NW,311,0.0,0.0,74,0.00,,,0.00,12.0,meteohub,2013-03-09 11:52:00,
2013-03-09 06:57:00,33.1,26.1,30.34,NW,311,2.0,2.0,75,0.00,,,0.00,14.0,meteohub,2013-03-09 11:57:00,
2013-03-09 07:02:00,32.9,25.9,30.34,NW,312,2.0,3.0,75,0.00,,,0.00,18.0,meteohub,2013-03-09 12:02:00,
2013-03-09 07:07:00,32.7,26.1,30.34,NW,311,0.0,3.0,76,0.00,,,0.00,19.0,meteohub,2013-03-09 12:07:00,
2013-03-09 07:12:00,32.7,26.2,30.34,NW,311,0.0,3.0,77,0.00,,,0.00,21.0,meteohub,2013-03-09 12:12:00,
2013-03-09 07:17:00,32.5,26.1,30.34,NW,311,0.0,2.0,77,0.00,,,0.00,23.0,meteohub,2013-03-09 12:17:00,
2013-03-09 07:22:00,32.5,26.1,30.34,NW,311,0.0,2.0,77,0.00,,,0.00,26.0,meteohub,2013-03-09 12:22:00,
2013-03-09 07:27:00,32.7,26.2,30.35,NW,311,0.0,1.0,77,0.00,,,0.00,26.0,meteohub,2013-03-09 12:27:00,
2013-03-09 07:32:00,32.9,26.4,30.35,NW,311,0.0,1.0,77,0.00,,,0.00,28.0,meteohub,2013-03-09 12:32:00,
2013-03-09 07:37:00,33.3,26.6,30.35,NW,311,2.0,2.0,76,0.00,,,0.00,40.0,meteohub,2013-03-09 12:37:00,
2013-03-09 07:42:00,34.0,27.1,30.35,WNW,300,2.0,3.0,76,0.00,,,0.00,100.0,meteohub,2013-03-09 12:42:00,
2013-03-09 07:47:00,34.7,27.7,30.35,West,281,4.0,4.0,75,0.00,,,0.00,146.0,meteohub,2013-03-09 12:47:00,
2013-03-09 07:52:00,35.6,28.2,30.35,WNW,295,3.0,4.0,74,0.00,,,0.00,167.0,meteohub,2013-03-09 12:52:00,
2013-03-09 07:57:00,36.5,28.4,30.36,NW,315,3.0,6.0,72,0.00,,,0.00,186.0,meteohub,2013-03-09 12:57:00,
2013-03-09 08:02:00,37.2,28.4,30.36,WNW,298,4.0,6.0,70,0.00,,,0.00,207.0,meteohub,2013-03-09 13:02:00,
2013-03-09 08:07:00,38.1,28.9,30.37,NW,318,4.0,6.0,69,0.00,,,0.00,221.0,meteohub,2013-03-09 13:07:00,
2013-03-09 08:12:00,38.7,28.9,30.36,NW,317,3.0,5.0,68,0.00,,,0.00,239.0,meteohub,2013-03-09 13:12:00,
2013-03-09 08:17:00,39.4,28.9,30.37,WNW,295,4.0,5.0,66,0.00,,,0.00,257.0,meteohub,2013-03-09 13:17:00,
2013-03-09 08:22:00,40.1,29.3,30.37,NW,313,2.0,5.0,65,0.00,,,0.00,274.0,meteohub,2013-03-09 13:22:00,
2013-03-09 08:27:00,40.8,29.1,30.37,NNW,338,2.0,5.0,63,0.00,,,0.00,292.0,meteohub,2013-03-09 13:27:00,
2013-03-09 08:32:00,41.5,29.8,30.37,NW,323,4.0,5.0,63,0.00,,,0.00,309.0,meteohub,2013-03-09 13:32:00,
2013-03-09 08:37:00,42.3,29.8,30.37,NW,316,6.0,6.0,61,0.00,,,0.00,325.0,meteohub,2013-03-09 13:37:00,
2013-03-09 08:42:00,43.0,30.0,30.37,NNW,328,3.0,6.0,60,0.00,,,0.00,339.0,meteohub,2013-03-09 13:42:00,
2013-03-09 08:47:00,43.5,30.2,30.37,WNW,290,5.0,6.0,59,0.00,,,0.00,355.0,meteohub,2013-03-09 13:47:00,
2013-03-09 08:52:00,44.1,30.2,30.37,NNW,338,3.0,6.0,58,0.00,,,0.00,373.0,meteohub,2013-03-09 13:52:00,
2013-03-09 08:57:00,44.6,29.8,30.37,NNW,327,5.0,7.0,56,0.00,,,0.00,388.0,meteohub,2013-03-09 13:57:00,
2013-03-09 09:02:00,45.0,30.2,30.37,NW,322,4.0,7.0,56,0.00,,,0.00,406.0,meteohub,2013-03-09 14:02:00,
2013-03-09 09:07:00,45.3,30.0,30.38,NNW,330,5.0,7.0,55,0.00,,,0.00,420.0,meteohub,2013-03-09 14:07:00,
2013-03-09 09:12:00,45.9,30.2,30.38,WNW,300,5.0,7.0,54,0.00,,,0.00,434.0,meteohub,2013-03-09 14:12:00,
2013-03-09 09:17:00,46.2,30.0,30.38,NW,320,2.0,7.0,53,0.00,,,0.00,448.0,meteohub,2013-03-09 14:17:00,
2013-03-09 09:22:00,46.9,30.7,30.38,NNW,335,3.0,7.0,53,0.00,,,0.00,466.0,meteohub,2013-03-09 14:22:00,
2013-03-09 09:27:00,47.5,30.2,30.38,WNW,302,6.0,6.0,51,0.00,,,0.00,480.0,meteohub,2013-03-09 14:27:00,
2013-03-09 09:32:00,47.8,30.0,30.38,NW,319,3.0,8.0,50,0.00,,,0.00,494.0,meteohub,2013-03-09 14:32:00,
2013-03-09 09:37:00,48.4,30.0,30.38,North,0,4.0,8.0,49,0.00,,,0.00,508.0,meteohub,2013-03-09 14:37:00,
2013-03-09 09:42:00,48.9,29.1,30.38,North,5,4.0,8.0,46,0.00,,,0.00,522.0,meteohub,2013-03-09 14:42:00,
2013-03-09 09:47:00,49.5,29.5,30.38,NNW,327,5.0,6.0,46,0.00,,,0.00,533.0,meteohub,2013-03-09 14:47:00,
2013-03-09 09:52:00,49.6,28.6,30.38,ENE,60,1.0,6.0,44,0.00,,,0.00,548.0,meteohub,2013-03-09 14:52:00,
2013-03-09 09:57:00,49.8,28.8,30.38,NW,307,3.0,7.0,44,0.00,,,0.00,563.0,meteohub,2013-03-09 14:57:00,
2013-03-09 10:02:00,50.4,29.3,30.38,NNW,334,4.0,7.0,44,0.00,,,0.00,573.0,meteohub,2013-03-09 15:02:00,
2013-03-09 10:07:00,50.5,28.9,30.37,NNW,336,1.0,6.0,43,0.00,,,0.00,585.0,meteohub,2013-03-09 15:07:00,
2013-03-09 10:12:00,51.3,28.4,30.37,NNW,342,2.0,6.0,41,0.00,,,0.00,598.0,meteohub,2013-03-09 15:12:00,
2013-03-09 10:17:00,51.4,27.9,30.37,ENE,57,0.0,5.0,40,0.00,,,0.00,612.0,meteohub,2013-03-09 15:17:00,
2013-03-09 10:22:00,52.0,28.4,30.37,North,355,3.0,5.0,40,0.00,,,0.00,622.0,meteohub,2013-03-09 15:22:00,
2013-03-09 10:27:00,52.3,28.8,30.36,NE,38,1.0,5.0,40,0.00,,,0.00,633.0,meteohub,2013-03-09 15:27:00,
2013-03-09 10:32:00,52.7,29.1,30.37,NW,319,1.0,6.0,40,0.00,,,0.00,643.0,meteohub,2013-03-09 15:32:00,
2013-03-09 10:37:00,52.9,28.6,30.37,NNW,340,3.0,8.0,39,0.00,,,0.00,652.0,meteohub,2013-03-09 15:37:00,
2013-03-09 10:42:00,53.1,29.3,30.36,SE,139,0.0,8.0,40,0.00,,,0.00,664.0,meteohub,2013-03-09 15:42:00,
2013-03-09 10:47:00,53.2,28.9,30.36,NW,316,4.0,8.0,39,0.00,,,0.00,671.0,meteohub,2013-03-09 15:47:00,
2013-03-09 10:52:00,53.2,28.9,30.37,NE,56,1.0,6.0,39,0.00,,,0.00,680.0,meteohub,2013-03-09 15:52:00,
2013-03-09 10:57:00,53.8,30.0,30.36,West,269,4.0,6.0,40,0.00,,,0.00,687.0,meteohub,2013-03-09 15:57:00,
2013-03-09 11:02:00,54.0,30.2,30.36,North,11,2.0,6.0,40,0.00,,,0.00,698.0,meteohub,2013-03-09 16:02:00,
2013-03-09 11:07:00,54.0,28.9,30.36,WSW,254,6.0,6.0,38,0.00,,,0.00,705.0,meteohub,2013-03-09 16:07:00,
2013-03-09 11:12:00,54.0,30.2,30.35,NNW,328,4.0,7.0,40,0.00,,,0.00,712.0,meteohub,2013-03-09 16:12:00,
2013-03-09 11:17:00,54.1,29.7,30.35,WNW,284,2.0,7.0,39,0.00,,,0.00,717.0,meteohub,2013-03-09 16:17:00,
2013-03-09 11:22:00,54.5,29.5,30.35,SE,127,2.0,7.0,38,0.00,,,0.00,724.0,meteohub,2013-03-09 16:22:00,
2013-03-09 11:27:00,55.0,30.6,30.35,SSW,195,2.0,7.0,39,0.00,,,0.00,733.0,meteohub,2013-03-09 16:27:00,
2013-03-09 11:32:00,55.8,32.4,30.35,NW,318,5.0,7.0,41,0.00,,,0.00,738.0,meteohub,2013-03-09 16:32:00,
2013-03-09 11:37:00,55.8,30.6,30.35,WNW,298,1.0,7.0,38,0.00,,,0.00,744.0,meteohub,2013-03-09 16:37:00,
2013-03-09 11:42:00,55.6,31.6,30.35,WNW,300,3.0,7.0,40,0.00,,,0.00,749.0,meteohub,2013-03-09 16:42:00,
2013-03-09 11:47:00,55.9,30.7,30.35,West,263,0.0,7.0,38,0.00,,,0.00,752.0,meteohub,2013-03-09 16:47:00,
2013-03-09 11:52:00,56.1,30.9,30.35,North,0,4.0,6.0,38,0.00,,,0.00,758.0,meteohub,2013-03-09 16:52:00,
2013-03-09 11:57:00,55.9,30.7,30.35,NW,315,2.0,6.0,38,0.00,,,0.00,759.0,meteohub,2013-03-09 16:57:00,
2013-03-09 12:02:00,56.1,32.2,30.34,NW,316,3.0,9.0,40,0.00,,,0.00,761.0,meteohub,2013-03-09 17:02:00,
2013-03-09 12:07:00,56.7,32.0,30.35,West,270,6.0,9.0,39,0.00,,,0.00,765.0,meteohub,2013-03-09 17:07:00,
2013-03-09 12:12:00,57.2,31.1,30.34,NNW,341,3.0,9.0,37,0.00,,,0.00,770.0,meteohub,2013-03-09 17:12:00,
2013-03-09 12:17:00,57.4,31.3,30.34,NW,318,4.0,8.0,37,0.00,,,0.00,770.0,meteohub,2013-03-09 17:17:00,
2013-03-09 12:22:00,57.4,30.6,30.34,NNW,344,5.0,7.0,36,0.00,,,0.00,772.0,meteohub,2013-03-09 17:22:00,
2013-03-09 12:27:00,57.4,30.0,30.34,WNW,302,1.0,7.0,35,0.00,,,0.00,773.0,meteohub,2013-03-09 17:27:00,
2013-03-09 12:32:00,57.9,31.1,30.34,WNW,300,3.0,6.0,36,0.00,,,0.00,775.0,meteohub,2013-03-09 17:32:00,
2013-03-09 12:37:00,58.3,31.5,30.34,West,272,5.0,7.0,36,0.00,,,0.00,773.0,meteohub,2013-03-09 17:37:00,
2013-03-09 12:42:00,58.5,30.9,30.33,NE,40,2.0,8.0,35,0.00,,,0.00,772.0,meteohub,2013-03-09 17:42:00,
2013-03-09 12:47:00,58.6,29.7,30.34,SSE,155,2.0,8.0,33,0.00,,,0.00,773.0,meteohub,2013-03-09 17:47:00,
2013-03-09 12:52:00,59.2,31.5,30.33,SSW,203,2.0,8.0,35,0.00,,,0.00,772.0,meteohub,2013-03-09 17:52:00,
2013-03-09 12:57:00,59.9,32.2,30.33,South,184,2.0,5.0,35,0.00,,,0.00,772.0,meteohub,2013-03-09 17:57:00,
2013-03-09 13:02:00,59.9,31.5,30.32,WNW,286,3.0,6.0,34,0.00,,,0.00,768.0,meteohub,2013-03-09 18:02:00,
2013-03-09 13:07:00,59.7,31.3,30.32,West,267,1.0,6.0,34,0.00,,,0.00,765.0,meteohub,2013-03-09 18:07:00,
2013-03-09 13:12:00,59.7,28.9,30.32,NE,47,3.0,6.0,31,0.00,,,0.00,763.0,meteohub,2013-03-09 18:12:00,
2013-03-09 13:17:00,59.7,28.9,30.32,NE,36,2.0,7.0,31,0.00,,,0.00,761.0,meteohub,2013-03-09 18:17:00,
2013-03-09 13:22:00,60.3,31.1,30.31,NE,53,3.0,7.0,33,0.00,,,0.00,756.0,meteohub,2013-03-09 18:22:00,
2013-03-09 13:27:00,60.1,29.3,30.31,ENE,66,3.0,7.0,31,0.00,,,0.00,754.0,meteohub,2013-03-09 18:27:00,
2013-03-09 13:32:00,60.3,30.2,30.31,SE,136,3.0,5.0,32,0.00,,,0.00,747.0,meteohub,2013-03-09 18:32:00,
2013-03-09 13:37:00,60.3,30.2,30.30,ESE,114,2.0,5.0,32,0.00,,,0.00,740.0,meteohub,2013-03-09 18:37:00,
2013-03-09 13:42:00,60.6,30.6,30.30,NE,42,3.0,4.0,32,0.00,,,0.00,735.0,meteohub,2013-03-09 18:42:00,
2013-03-09 13:47:00,61.2,31.1,30.30,SSE,157,2.0,4.0,32,0.00,,,0.00,731.0,meteohub,2013-03-09 18:47:00,
2013-03-09 13:52:00,61.3,30.4,30.30,South,181,1.0,7.0,31,0.00,,,0.00,724.0,meteohub,2013-03-09 18:52:00,
2013-03-09 13:57:00,62.1,29.5,30.30,NNW,334,4.0,7.0,29,0.00,,,0.00,715.0,meteohub,2013-03-09 18:57:00,
2013-03-09 14:02:00,61.9,28.4,30.30,NNW,335,3.0,5.0,28,0.00,,,0.00,707.0,meteohub,2013-03-09 19:02:00,
2013-03-09 14:07:00,62.2,30.4,30.30,ESE,121,3.0,5.0,30,0.00,,,0.00,700.0,meteohub,2013-03-09 19:07:00,
2013-03-09 14:13:00,62.4,29.7,30.30,ESE,113,2.0,5.0,29,0.00,,,0.00,691.0,meteohub,2013-03-09 19:13:00,
2013-03-09 14:18:00,62.2,27.9,30.29,ENE,73,2.0,5.0,27,0.00,,,0.00,682.0,meteohub,2013-03-09 19:18:00,
2013-03-09 14:23:00,62.2,28.8,30.29,ESE,116,1.0,5.0,28,0.00,,,0.00,673.0,meteohub,2013-03-09 19:23:00,
2013-03-09 14:28:00,62.4,28.9,30.29,ENE,69,0.0,5.0,28,0.00,,,0.00,663.0,meteohub,2013-03-09 19:28:00,
2013-03-09 14:33:00,62.4,27.1,30.29,South,175,2.0,5.0,26,0.00,,,0.00,654.0,meteohub,2013-03-09 19:33:00,
2013-03-09 14:38:00,62.8,28.2,30.29,ESE,107,2.0,5.0,27,0.00,,,0.00,643.0,meteohub,2013-03-09 19:38:00,
2013-03-09 14:44:00,63.0,27.5,30.29,ENE,57,3.0,5.0,26,0.00,,,0.00,631.0,meteohub,2013-03-09 19:44:00,
2013-03-09 14:49:00,62.6,27.1,30.28,East,90,1.0,7.0,26,0.00,,,0.00,621.0,meteohub,2013-03-09 19:49:00,
2013-03-09 14:54:00,62.6,27.1,30.28,SE,139,3.0,7.0,26,0.00,,,0.00,610.0,meteohub,2013-03-09 19:54:00,
2013-03-09 14:59:00,62.4,27.1,30.28,North,355,2.0,7.0,26,0.00,,,0.00,596.0,meteohub,2013-03-09 19:59:00,
2013-03-09 15:04:00,62.4,26.1,30.27,North,5,0.0,7.0,25,0.00,,,0.00,584.0,meteohub,2013-03-09 20:04:00,
2013-03-09 15:09:00,62.6,30.7,30.27,SE,144,2.0,5.0,30,0.00,,,0.00,570.0,meteohub,2013-03-09 20:09:00,
2013-03-09 15:14:00,63.0,27.5,30.27,SE,132,4.0,4.0,26,0.00,,,0.00,557.0,meteohub,2013-03-09 20:14:00,
2013-03-09 15:19:00,63.0,28.4,30.27,ESE,106,2.0,6.0,27,0.00,,,0.00,543.0,meteohub,2013-03-09 20:19:00,
2013-03-09 15:25:00,63.1,28.6,30.27,ESE,113,1.0,6.0,27,0.00,,,0.00,527.0,meteohub,2013-03-09 20:25:00,
2013-03-09 15:30:00,63.3,25.9,30.27,West,263,1.0,6.0,24,0.00,,,0.00,512.0,meteohub,2013-03-09 20:30:00,
2013-03-09 15:35:00,63.5,28.0,30.27,ESE,109,1.0,3.0,26,0.00,,,0.00,499.0,meteohub,2013-03-09 20:35:00,
2013-03-09 15:40:00,63.3,27.0,30.27,SSE,158,1.0,4.0,25,0.00,,,0.00,483.0,meteohub,2013-03-09 20:40:00,
2013-03-09 15:45:00,63.3,27.0,30.27,WNW,292,0.0,4.0,25,0.00,,,0.00,427.0,meteohub,2013-03-09 20:45:00,
2013-03-09 15:50:00,63.7,26.2,30.27,ESE,121,1.0,4.0,24,0.00,,,0.00,387.0,meteohub,2013-03-09 20:50:00,
2013-03-09 15:55:00,63.5,26.1,30.27,South,174,0.0,5.0,24,0.00,,,0.00,216.0,meteohub,2013-03-09 20:55:00,
2013-03-09 16:00:00,63.3,24.8,30.27,SE,141,0.0,5.0,23,0.00,,,0.00,202.0,meteohub,2013-03-09 21:00:00,
2013-03-09 16:05:00,63.3,25.9,30.27,SE,134,0.0,5.0,24,0.00,,,0.00,330.0,meteohub,2013-03-09 21:05:00,
2013-03-09 16:11:00,63.3,25.9,30.27,ESE,107,0.0,3.0,24,0.00,,,0.00,146.0,meteohub,2013-03-09 21:11:00,
2013-03-09 16:16:00,63.0,25.5,30.27,North,355,1.0,3.0,24,0.00,,,0.00,128.0,meteohub,2013-03-09 21:16:00,
2013-03-09 16:21:00,62.8,25.5,30.27,NE,49,0.0,4.0,24,0.00,,,0.00,167.0,meteohub,2013-03-09 21:21:00,
2013-03-09 16:26:00,62.8,27.3,30.27,ESE,107,0.0,4.0,26,0.00,,,0.00,239.0,meteohub,2013-03-09 21:26:00,
2013-03-09 16:31:00,62.2,26.1,30.27,East,97,0.0,4.0,25,0.00,,,0.00,95.0,meteohub,2013-03-09 21:31:00,
2013-03-09 16:36:00,61.9,25.7,30.27,ESE,102,1.0,4.0,25,0.00,,,0.00,88.0,meteohub,2013-03-09 21:36:00,
2013-03-09 16:41:00,61.7,25.5,30.26,ESE,110,1.0,4.0,25,0.00,,,0.00,142.0,meteohub,2013-03-09 21:41:00,
2013-03-09 16:47:00,61.3,24.3,30.27,ESE,121,1.0,3.0,24,0.00,,,0.00,88.0,meteohub,2013-03-09 21:47:00,
2013-03-09 16:52:00,61.2,25.0,30.26,SE,129,0.0,3.0,25,0.00,,,0.00,62.0,meteohub,2013-03-09 21:52:00,
2013-03-09 16:57:00,61.2,25.0,30.26,North,5,2.0,3.0,25,0.00,,,0.00,58.0,meteohub,2013-03-09 21:57:00,
2013-03-09 17:02:00,61.0,25.9,30.26,North,5,0.0,4.0,26,0.00,,,0.00,53.0,meteohub,2013-03-09 22:02:00,
2013-03-09 17:07:00,61.0,27.7,30.26,North,5,0.0,4.0,28,0.00,,,0.00,39.0,meteohub,2013-03-09 22:07:00,
2013-03-09 17:12:00,60.6,27.3,30.26,NNE,27,0.0,2.0,28,0.00,,,0.00,60.0,meteohub,2013-03-09 22:12:00,
2013-03-09 17:17:00,60.6,25.5,30.26,NE,39,0.0,3.0,26,0.00,,,0.00,47.0,meteohub,2013-03-09 22:17:00,
2013-03-09 17:22:00,60.4,25.3,30.26,East,101,0.0,3.0,26,0.00,,,0.00,42.0,meteohub,2013-03-09 22:22:00,
2013-03-09 17:27:00,60.3,26.1,30.26,ENE,64,0.0,3.0,27,0.00,,,0.00,40.0,meteohub,2013-03-09 22:27:00,
2013-03-09 17:32:00,60.1,26.1,30.26,ESE,121,0.0,3.0,27,0.00,,,0.00,30.0,meteohub,2013-03-09 22:32:00,
2013-03-09 17:37:00,59.7,25.7,30.26,SE,132,0.0,3.0,27,0.00,,,0.00,30.0,meteohub,2013-03-09 22:37:00,
2013-03-09 17:42:00,59.5,27.3,30.26,ESE,105,1.0,3.0,29,0.00,,,0.00,26.0,meteohub,2013-03-09 22:42:00,
2013-03-09 17:47:00,59.4,26.2,30.26,SE,142,0.0,3.0,28,0.00,,,0.00,25.0,meteohub,2013-03-09 22:47:00,
2013-03-09 17:52:00,59.2,26.1,30.27,SE,142,0.0,3.0,28,0.00,,,0.00,23.0,meteohub,2013-03-09 22:52:00,
2013-03-09 17:57:00,58.8,25.7,30.27,SE,128,0.0,3.0,28,0.00,,,0.00,18.0,meteohub,2013-03-09 22:57:00,
2013-03-09 18:02:00,58.6,26.4,30.27,ESE,117,0.0,3.0,29,0.00,,,0.00,14.0,meteohub,2013-03-09 23:02:00,
2013-03-09 18:07:00,58.5,27.1,30.27,ESE,117,1.0,3.0,30,0.00,,,0.00,12.0,meteohub,2013-03-09 23:07:00,
2013-03-09 18:12:00,58.3,27.0,30.27,ESE,117,0.0,3.0,30,0.00,,,0.00,9.0,meteohub,2013-03-09 23:12:00,
2013-03-09 18:17:00,57.9,26.6,30.27,ESE,117,0.0,1.0,30,0.00,,,0.00,5.0,meteohub,2013-03-09 23:17:00,
2013-03-09 18:22:00,57.7,26.4,30.27,ESE,117,0.0,1.0,30,0.00,,,0.00,0.0,meteohub,2013-03-09 23:22:00,
2013-03-09 18:27:00,57.4,26.2,30.27,ESE,117,0.0,0.0,30,0.00,,,0.00,0.0,meteohub,2013-03-09 23:27:00,
2013-03-09 18:32:00,56.8,26.6,30.27,ESE,117,0.0,0.0,31,0.00,,,0.00,0.0,meteohub,2013-03-09 23:32:00,
2013-03-09 18:37:00,56.5,27.0,30.28,ESE,117,0.0,0.0,32,0.00,,,0.00,0.0,meteohub,2013-03-09 23:37:00,
2013-03-09 18:42:00,56.1,25.9,30.28,ESE,117,0.0,0.0,31,0.00,,,0.00,0.0,meteohub,2013-03-09 23:42:00,
2013-03-09 18:47:00,55.8,25.5,30.28,ESE,117,0.0,0.0,31,0.00,,,0.00,0.0,meteohub,2013-03-09 23:47:00,
2013-03-09 18:52:00,55.4,26.1,30.28,ESE,117,0.0,0.0,32,0.00,,,0.00,0.0,meteohub,2013-03-09 23:52:00,
2013-03-09 18:57:00,54.9,27.7,30.28,ESE,117,0.0,0.0,35,0.00,,,0.00,0.0,meteohub,2013-03-09 23:57:00,
2013-03-09 19:02:00,54.1,27.1,30.28,ESE,117,0.0,0.0,35,0.00,,,0.00,0.0,meteohub,2013-03-10 00:02:00,
2013-03-09 19:07:00,53.4,27.1,30.28,ESE,117,0.0,0.0,36,0.00,,,0.00,0.0,meteohub,2013-03-10 00:07:00,
2013-03-09 19:12:00,53.1,28.0,30.29,ESE,117,0.0,0.0,38,0.00,,,0.00,0.0,meteohub,2013-03-10 00:12:00,
2013-03-09 19:17:00,52.5,28.2,30.29,ESE,117,0.0,0.0,39,0.00,,,0.00,0.0,meteohub,2013-03-10 00:17:00,
2013-03-09 19:22:00,52.2,27.9,30.29,ESE,117,0.0,0.0,39,0.00,,,0.00,0.0,meteohub,2013-03-10 00:22:00,
2013-03-09 19:27:00,51.4,27.9,30.29,ESE,117,0.0,0.0,40,0.00,,,0.00,0.0,meteohub,2013-03-10 00:27:00,
2013-03-09 19:32:00,51.1,28.2,30.29,ESE,117,0.0,0.0,41,0.00,,,0.00,0.0,meteohub,2013-03-10 00:32:00,
2013-03-09 19:37:00,50.7,27.9,30.29,ESE,117,0.0,0.0,41,0.00,,,0.00,0.0,meteohub,2013-03-10 00:37:00,
2013-03-09 19:42:00,50.4,27.5,30.29,ESE,117,0.0,0.0,41,0.00,,,0.00,0.0,meteohub,2013-03-10 00:42:00,
2013-03-09 19:47:00,50.2,28.6,30.29,ESE,117,0.0,0.0,43,0.00,,,0.00,0.0,meteohub,2013-03-10 00:47:00,
2013-03-09 19:52:00,49.6,28.6,30.29,ESE,117,0.0,0.0,44,0.00,,,0.00,0.0,meteohub,2013-03-10 00:52:00,
2013-03-09 19:57:00,49.5,28.4,30.29,ESE,117,0.0,0.0,44,0.00,,,0.00,0.0,meteohub,2013-03-10 00:57:00,
2013-03-09 20:02:00,49.1,27.5,30.29,ESE,117,0.0,0.0,43,0.00,,,0.00,0.0,meteohub,2013-03-10 01:02:00,
2013-03-09 20:07:00,48.7,27.3,30.29,ESE,117,0.0,0.0,43,0.00,,,0.00,0.0,meteohub,2013-03-10 01:07:00,
2013-03-09 20:12:00,48.4,27.5,30.29,ESE,117,0.0,0.0,44,0.00,,,0.00,0.0,meteohub,2013-03-10 01:12:00,
2013-03-09 20:17:00,47.8,27.0,30.29,ESE,117,0.0,0.0,44,0.00,,,0.00,0.0,meteohub,2013-03-10 01:17:00,
2013-03-09 20:22:00,47.7,26.8,30.30,ESE,117,0.0,0.0,44,0.00,,,0.00,0.0,meteohub,2013-03-10 01:22:00,
2013-03-09 20:27:00,47.5,27.1,30.29,ESE,117,0.0,0.0,45,0.00,,,0.00,0.0,meteohub,2013-03-10 01:27:00,
2013-03-09 20:32:00,47.1,26.8,30.29,ESE,117,0.0,0.0,45,0.00,,,0.00,0.0,meteohub,2013-03-10 01:32:00,
2013-03-09 20:37:00,46.9,27.3,30.30,ESE,117,0.0,0.0,46,0.00,,,0.00,0.0,meteohub,2013-03-10 01:37:00,
2013-03-09 20:42:00,46.9,27.3,30.29,ESE,117,0.0,0.0,46,0.00,,,0.00,0.0,meteohub,2013-03-10 01:42:00,
2013-03-09 20:47:00,46.6,27.5,30.30,ESE,117,0.0,0.0,47,0.00,,,0.00,0.0,meteohub,2013-03-10 01:47:00,
2013-03-09 20:52:00,46.4,27.3,30.30,ESE,117,0.0,0.0,47,0.00,,,0.00,0.0,meteohub,2013-03-10 01:52:00,
2013-03-09 20:57:00,46.0,27.0,30.30,ESE,117,0.0,0.0,47,0.00,,,0.00,0.0,meteohub,2013-03-10 01:57:00,
2013-03-09 21:02:00,46.0,27.9,30.30,ESE,117,0.0,0.0,49,0.00,,,0.00,0.0,meteohub,2013-03-10 02:02:00,
2013-03-09 21:07:00,45.9,28.2,30.30,ESE,117,0.0,0.0,50,0.00,,,0.00,0.0,meteohub,2013-03-10 02:07:00,
2013-03-09 21:12:00,45.5,27.5,30.30,ESE,117,0.0,0.0,49,0.00,,,0.00,0.0,meteohub,2013-03-10 02:12:00,
2013-03-09 21:17:00,45.3,26.8,30.30,ESE,117,0.0,0.0,48,0.00,,,0.00,0.0,meteohub,2013-03-10 02:17:00,
2013-03-09 21:22:00,45.1,27.1,30.30,ESE,117,0.0,0.0,49,0.00,,,0.00,0.0,meteohub,2013-03-10 02:22:00,
2013-03-09 21:27:00,44.8,26.8,30.30,ESE,117,0.0,0.0,49,0.00,,,0.00,0.0,meteohub,2013-03-10 02:27:00,
2013-03-09 21:32:00,44.6,27.1,30.30,ESE,117,0.0,0.0,50,0.00,,,0.00,0.0,meteohub,2013-03-10 02:32:00,
2013-03-09 21:37:00,44.4,27.0,30.30,ESE,117,0.0,0.0,50,0.00,,,0.00,0.0,meteohub,2013-03-10 02:37:00,
2013-03-09 21:42:00,44.2,27.3,30.30,ESE,117,0.0,0.0,51,0.00,,,0.00,0.0,meteohub,2013-03-10 02:42:00,
2013-03-09 21:47:00,44.1,27.1,30.31,ESE,117,0.0,0.0,51,0.00,,,0.00,0.0,meteohub,2013-03-10 02:47:00,
2013-03-09 21:52:00,44.1,27.1,30.31,ESE,117,0.0,0.0,51,0.00,,,0.00,0.0,meteohub,2013-03-10 02:52:00,
2013-03-09 21:57:00,43.9,27.0,30.31,ESE,117,0.0,0.0,51,0.00,,,0.00,0.0,meteohub,2013-03-10 02:57:00,
2013-03-09 22:03:00,43.7,27.1,30.31,ESE,117,0.0,0.0,52,0.00,,,0.00,0.0,meteohub,2013-03-10 03:03:00,
2013-03-09 22:08:00,43.5,27.5,30.31,ESE,117,0.0,0.0,53,0.00,,,0.00,0.0,meteohub,2013-03-10 03:08:00,
2013-03-09 22:13:00,43.3,27.0,30.31,ESE,117,0.0,0.0,52,0.00,,,0.00,0.0,meteohub,2013-03-10 03:13:00,
2013-03-09 22:18:00,43.3,27.0,30.31,ESE,117,0.0,0.0,52,0.00,,,0.00,0.0,meteohub,2013-03-10 03:18:00,
2013-03-09 22:23:00,43.2,26.8,30.31,ESE,117,0.0,0.0,52,0.00,,,0.00,0.0,meteohub,2013-03-10 03:23:00,
2013-03-09 22:28:00,43.2,27.1,30.30,ESE,117,0.0,0.0,53,0.00,,,0.00,0.0,meteohub,2013-03-10 03:28:00,
2013-03-09 22:34:00,43.0,28.8,30.30,ESE,117,0.0,0.0,57,0.00,,,0.00,0.0,meteohub,2013-03-10 03:34:00,
2013-03-09 22:39:00,42.6,27.5,30.30,ESE,117,0.0,0.0,55,0.00,,,0.00,0.0,meteohub,2013-03-10 03:39:00,
2013-03-09 22:44:00,42.4,27.5,30.31,ESE,117,0.0,0.0,55,0.00,,,0.00,0.0,meteohub,2013-03-10 03:44:00,
2013-03-09 22:49:00,42.4,27.9,30.31,ESE,117,0.0,0.0,56,0.00,,,0.00,0.0,meteohub,2013-03-10 03:49:00,
2013-03-09 22:54:00,42.3,26.8,30.31,ESE,117,0.0,0.0,54,0.00,,,0.00,0.0,meteohub,2013-03-10 03:54:00,
2013-03-09 22:59:00,42.1,27.1,30.31,ESE,117,0.0,0.0,55,0.00,,,0.00,0.0,meteohub,2013-03-10 03:59:00,
2013-03-09 23:04:00,42.1,27.1,30.31,ESE,117,0.0,0.0,55,0.00,,,0.00,0.0,meteohub,2013-03-10 04:04:00,
2013-03-09 23:09:00,42.1,27.1,30.31,ESE,117,0.0,0.0,55,0.00,,,0.00,0.0,meteohub,2013-03-10 04:09:00,
2013-03-09 23:15:00,42.1,27.9,30.31,ESE,117,0.0,0.0,57,0.00,,,0.00,0.0,meteohub,2013-03-10 04:15:00,
2013-03-09 23:20:00,41.9,28.6,30.31,ESE,117,0.0,0.0,59,0.00,,,0.00,0.0,meteohub,2013-03-10 04:20:00,
2013-03-09 23:25:00,41.7,28.4,30.31,ESE,117,0.0,0.0,59,0.00,,,0.00,0.0,meteohub,2013-03-10 04:25:00,
2013-03-09 23:30:00,41.5,28.8,30.32,ESE,117,0.0,0.0,60,0.00,,,0.00,0.0,meteohub,2013-03-10 04:30:00,
2013-03-09 23:35:00,41.4,29.7,30.32,ESE,117,0.0,1.0,63,0.00,,,0.00,0.0,meteohub,2013-03-10 04:35:00,
2013-03-09 23:40:00,41.2,30.0,30.32,ESE,117,0.0,1.0,64,0.00,,,0.00,0.0,meteohub,2013-03-10 04:40:00,
2013-03-09 23:45:00,40.6,29.5,30.32,ESE,117,0.0,1.0,64,0.00,,,0.00,0.0,meteohub,2013-03-10 04:45:00,
2013-03-09 23:50:00,40.5,28.9,30.32,ESE,117,0.0,0.0,63,0.00,,,0.00,0.0,meteohub,2013-03-10 04:50:00,
2013-03-09 23:56:00,40.5,29.7,30.32,ESE,117,0.0,0.0,65,0.00,,,0.00,0.0,meteohub,2013-03-10 04:56:00,